Time_in_sec,gx,gy,gz
1314891992.29263735,0.20188731,0.03028714,-0.97894035
1314891992.34063816,0.20195025,0.02987994,-0.97893988
1314891992.39265680,0.20222470,0.02972165,-0.97888804
1314891992.44047832,0.20236800,0.02942311,-0.97886744
1314891992.49408007,0.20233183,0.02930517,-0.97887846
1314891992.54061723,0.20245866,0.02932537,-0.97885163
1314891992.59260321,0.20233603,0.02933086,-0.97887682
1314891992.64053869,0.20227209,0.02940511,-0.97888781
1314891992.69252324,0.20206269,0.02921994,-0.97893660
1314891992.74052930,0.20185570,0.02922853,-0.97897904
1314891992.79248738,0.20170659,0.02918157,-0.97901118
1314891992.84449649,0.20177967,0.02911248,-0.97899818
1314891992.89253092,0.20192404,0.02902135,-0.97897111
1314891992.94051242,0.20191247,0.02912923,-0.97897030
1314891992.99249268,0.20200667,0.02906995,-0.97895263
1314891993.04052186,0.20186569,0.02924497,-0.97897649
1314891993.09258246,0.20210560,0.02923884,-0.97892718
1314891993.14062643,0.20241373,0.02935702,-0.97885997
1314891993.19259143,0.20223666,0.02928254,-0.97889880
1314891993.24459743,0.20251773,0.02913776,-0.97884501
1314891993.29371309,0.20267003,0.02896856,-0.97881851
1314891993.34697914,0.20266873,0.02901046,-0.97881754
1314891993.39352846,0.20263710,0.02902247,-0.97882373
1314891993.44716525,0.20218474,0.02907763,-0.97891564
1314891993.49387288,0.20226305,0.02896370,-0.97890284
1314891993.54550862,0.20241267,0.02895601,-0.97887214
1314891993.59247327,0.20250368,0.02883584,-0.97885686
1314891993.64551234,0.20240745,0.02880702,-0.97887761
1314891993.69304657,0.20248358,0.02851495,-0.97887042
1314891993.74545693,0.20229673,0.02865836,-0.97890486
1314891993.79247665,0.20226723,0.02868141,-0.97891028
1314891993.84151578,0.20224564,0.02893841,-0.97890718
1314891993.89246249,0.20226761,0.02866956,-0.97891055
1314891993.94090605,0.20136364,0.02752036,-0.97912988
1314891993.99360108,0.20141879,0.02727807,-0.97912531
1314891994.04451275,0.20137837,0.02724675,-0.97913450
1314891994.09366417,0.20122559,0.02726423,-0.97916542
1314891994.14506340,0.20104769,0.02737244,-0.97919894
1314891994.19361424,0.19993910,0.02578095,-0.97946909
1314891994.24448776,0.20005459,0.02567153,-0.97944838
1314891994.29303885,0.20011153,0.02589708,-0.97943081
1314891994.34459925,0.20011592,0.02572728,-0.97943439
1314891994.39292741,0.20003398,0.02585066,-0.97944788
1314891994.44451046,0.20061185,0.02549738,-0.97933894
1314891994.49362183,0.20029703,0.02527081,-0.97940925
1314891994.54148483,0.20018920,0.02498740,-0.97943857
1314891994.59249187,0.20044443,0.02484027,-0.97939011
1314891994.64160085,0.20062763,0.02483966,-0.97935262
1314891994.69292116,0.20075438,0.02400232,-0.97934752
1314891994.74149060,0.20063162,0.02413534,-0.97936941
1314891994.79277444,0.20048336,0.02427407,-0.97939634
1314891994.84148383,0.20052746,0.02445732,-0.97938275
1314891994.89277530,0.20060106,0.02411478,-0.97937617
1314891994.94461536,0.20042971,0.02416334,-0.97941006
1314891994.99252701,0.20047543,0.02403233,-0.97940393
1314891995.04544663,0.20036398,0.02410332,-0.97942499
1314891995.09268761,0.20050354,0.02418695,-0.97939437
1314891995.14552474,0.20038059,0.02442252,-0.97941368
1314891995.19259477,0.20032157,0.02469981,-0.97941880
1314891995.24050975,0.20010068,0.02458083,-0.97946695
1314891995.29276228,0.20023318,0.02436453,-0.97944527
1314891995.34154296,0.20041845,0.02442277,-0.97940593
1314891995.39302111,0.20037335,0.02469946,-0.97940822
1314891995.44048333,0.19970031,0.02479390,-0.97954329
1314891995.49515820,0.19974246,0.02476176,-0.97953551
1314891995.54061723,0.19967801,0.02470864,-0.97954999
1314891995.59470153,0.19972002,0.02466441,-0.97954254
1314891995.64424348,0.19956456,0.02479750,-0.97957086
1314891995.69258618,0.19903197,0.02454157,-0.97968566
1314891995.74085093,0.19903493,0.02450501,-0.97968597
1314891995.79351687,0.19898276,0.02439032,-0.97969943
1314891995.84053326,0.19899799,0.02444793,-0.97969490
1314891995.89352775,0.19842142,0.02362301,-0.97983207
1314891995.94052005,0.19851820,0.02356665,-0.97981383
1314891995.99254847,0.19858945,0.02377581,-0.97979434
1314891996.04049993,0.19849155,0.02393940,-0.97981019
1314891996.09252381,0.19814797,0.02416931,-0.97987409
1314891996.14551568,0.19757524,0.02424891,-0.97998776
1314891996.19260001,0.19742438,0.02410185,-0.98002179
1314891996.24535131,0.19746628,0.02385919,-0.98001929
1314891996.30575252,0.19741017,0.02370841,-0.98003425
1314891996.34544849,0.19753878,0.02371780,-0.98000811
1314891996.39257836,0.19761893,0.02363970,-0.97999384
1314891996.45251226,0.19733868,0.02357083,-0.98005197
1314891996.49351120,0.19740966,0.02379133,-0.98003235
1314891996.54519892,0.19735028,0.02389364,-0.98004182
1314891996.59258986,0.19712473,0.02394551,-0.98008594
1314891996.64151287,0.19701210,0.02412773,-0.98010412
1314891996.69251442,0.19706737,0.02426696,-0.98008957
1314891996.74504662,0.19700536,0.02449239,-0.98009643
1314891996.79252958,0.19688945,0.02452150,-0.98011899
1314891996.84521198,0.19681660,0.02451571,-0.98013377
1314891996.90446043,0.19665246,0.02439177,-0.98016981
1314891996.94560218,0.19663158,0.02408287,-0.98018163
1314891996.99259138,0.19693949,0.02392598,-0.98012366
1314891997.04460716,0.19693210,0.02389041,-0.98012601
1314891997.09361577,0.19693989,0.02384696,-0.98012550
1314891997.14499760,0.19691098,0.02370825,-0.98013468
1314891997.19226575,0.19749543,0.02395819,-0.98001100
1314891997.24161458,0.19725469,0.02406942,-0.98005676
1314891997.29250908,0.19702039,0.02417737,-0.98010123
1314891997.34459996,0.19726717,0.02429974,-0.98004856
1314891997.39261127,0.19780143,0.02460261,-0.97993332
1314891997.44468045,0.19798755,0.02455816,-0.97989684
1314891997.49362016,0.19783287,0.02457151,-0.97992775
1314891997.54449511,0.19776581,0.02442174,-0.97994503
1314891997.59254694,0.19781214,0.02431130,-0.97993843
1314891997.64555860,0.19783555,0.02436045,-0.97993248
1314891997.69361019,0.19776115,0.02518960,-0.97992653
1314891997.74162674,0.19776600,0.02521737,-0.97992484
1314891997.79261136,0.19783012,0.02521778,-0.97991189
1314891997.84505558,0.19787275,0.02506109,-0.97990730
1314891997.89261961,0.19721271,0.02528795,-0.98003452
1314891997.94450808,0.19699960,0.02538148,-0.98007497
1314891997.99348879,0.19686277,0.02564344,-0.98009564
1314891998.04449677,0.19686818,0.02549251,-0.98009849
1314891998.09359837,0.19682026,0.02544184,-0.98010943
1314891998.14179659,0.19662132,0.02542954,-0.98014968
1314891998.19360352,0.19632851,0.02549274,-0.98020673
1314891998.24152422,0.19627804,0.02548168,-0.98021713
1314891998.29259443,0.19659483,0.02569304,-0.98014812
1314891998.34269929,0.19658854,0.02564711,-0.98015059
1314891998.39258718,0.19640443,0.02566126,-0.98018713
1314891998.44151425,0.19670075,0.02642087,-0.98010752
1314891998.49429655,0.19643714,0.02652275,-0.98015764
1314891998.54322720,0.19640976,0.02640984,-0.98016617
1314891998.59254241,0.19638819,0.02639293,-0.98017095
1314891998.64052153,0.19660481,0.02638605,-0.98012771
1314891998.69254398,0.19707512,0.02672017,-0.98002420
1314891998.74154305,0.19713636,0.02660838,-0.98001492
1314891998.79248857,0.19730019,0.02669342,-0.97997964
1314891998.84502888,0.19731997,0.02683836,-0.97997170
1314891998.89252329,0.19840246,0.02679678,-0.97975425
1314891998.94154739,0.19844044,0.02704544,-0.97973973
1314891998.99250197,0.19832952,0.02701965,-0.97976290
1314891999.04047942,0.19822033,0.02696184,-0.97978659
1314891999.09252930,0.19840105,0.02717940,-0.97974400
1314891999.14534497,0.19838528,0.02716948,-0.97974747
1314891999.19258976,0.19916693,0.02749268,-0.97957985
1314891999.24453402,0.19911620,0.02765259,-0.97958566
1314891999.29252362,0.19914523,0.02759883,-0.97958128
1314891999.34458804,0.19909674,0.02766238,-0.97958934
1314891999.39353871,0.19923145,0.02734300,-0.97957092
1314891999.44556713,0.19893528,0.02740205,-0.97962946
1314891999.49260449,0.19872481,0.02741213,-0.97967190
1314891999.54552794,0.19893899,0.02739612,-0.97962888
1314891999.59258604,0.19889760,0.02716721,-0.97964365
1314891999.64551997,0.19882414,0.02695674,-0.97966438
1314891999.69352913,0.19931477,0.02617170,-0.97958597
1314891999.74549222,0.19929543,0.02614753,-0.97959055
1314891999.79356146,0.19919069,0.02618830,-0.97961076
1314891999.84551096,0.19894373,0.02611183,-0.97966298
1314891999.89263988,0.19921682,0.02630405,-0.97960235
1314891999.94551134,0.19944124,0.02647817,-0.97955199
1314891999.99352574,0.19928192,0.02620257,-0.97959182
1314892000.04451394,0.19936927,0.02620753,-0.97957392
1314892000.09368992,0.19962446,0.02632539,-0.97951878
1314892000.14164138,0.19955751,0.02642438,-0.97952976
1314892000.19251251,0.20058088,0.02716586,-0.97930043
1314892000.24161291,0.20055115,0.02713386,-0.97930740
1314892000.29362416,0.20047457,0.02719456,-0.97932140
1314892000.34452200,0.20043252,0.02701452,-0.97933499
1314892000.39367604,0.20147094,0.02890154,-0.97906801
1314892000.44096708,0.20122394,0.02891475,-0.97911841
1314892000.49348855,0.20140482,0.02889442,-0.97908182
1314892000.54161620,0.20136036,0.02901278,-0.97908746
1314892000.59250188,0.20136154,0.02896381,-0.97908867
1314892000.64164162,0.20243295,0.03061144,-0.97881757
1314892000.69265175,0.20222985,0.03074669,-0.97885532
1314892000.74073911,0.20176752,0.03034768,-0.97896317
1314892000.79279661,0.20161859,0.03048869,-0.97898947
1314892000.84164095,0.20149413,0.03049651,-0.97901485
1314892000.89300370,0.20133364,0.03159100,-0.97901316
1314892000.94161606,0.20151861,0.03170188,-0.97897152
1314892000.99263287,0.20171883,0.03142137,-0.97893933
1314892001.04459524,0.20182808,0.03138987,-0.97891782
1314892001.09266400,0.20171130,0.03129615,-0.97894489
1314892001.14061093,0.20177282,0.03130557,-0.97893191
1314892001.19256067,0.20257973,0.03106005,-0.97877307
1314892001.24553061,0.20276428,0.03093058,-0.97873896
1314892001.29358459,0.20265566,0.03100189,-0.97875920
1314892001.34058857,0.20283482,0.03067353,-0.97873243
1314892001.39371967,0.20331933,0.03109938,-0.97861845
1314892001.44050074,0.20327743,0.03097258,-0.97863118
1314892001.49250484,0.20329428,0.03114109,-0.97862233
1314892001.54430795,0.20320356,0.03124028,-0.97863801
1314892001.59263515,0.20326933,0.03130365,-0.97862233
1314892001.64054537,0.20331562,0.03142846,-0.97860871
1314892001.69356060,0.20311624,0.03164719,-0.97864306
1314892001.74149728,0.20323530,0.03181107,-0.97861303
1314892001.79253745,0.20336392,0.03175630,-0.97858809
1314892001.84131598,0.20331565,0.03162518,-0.97860237
1314892001.89352083,0.20407687,0.03186544,-0.97843611
1314892001.94163275,0.20406907,0.03172306,-0.97844236
1314892001.99350619,0.20396093,0.03187488,-0.97845998
1314892002.04128814,0.20413324,0.03218233,-0.97841398
1314892002.09259915,0.20430652,0.03206167,-0.97838177
1314892002.14142489,0.20437956,0.03183122,-0.97837404
1314892002.19294262,0.20451282,0.03195799,-0.97834206
1314892002.24448395,0.20479077,0.03201106,-0.97828218
1314892002.29314566,0.20509576,0.03185393,-0.97822342
1314892002.34141016,0.20506535,0.03173830,-0.97823355
1314892002.39258718,0.20487404,0.03136902,-0.97828555
1314892002.44126582,0.20477358,0.03147473,-0.97830319
1314892002.49364901,0.20469004,0.03133478,-0.97832516
1314892002.54151416,0.20466341,0.03116008,-0.97833631
1314892002.59366989,0.20472278,0.03122460,-0.97832183
1314892002.64448857,0.20473097,0.03136147,-0.97831574
1314892002.69268155,0.20484991,0.03094865,-0.97830399
1314892002.74449444,0.20503945,0.03096500,-0.97826376
1314892002.79314518,0.20511411,0.03071537,-0.97825598
1314892002.84119081,0.20490930,0.03086253,-0.97829427
1314892002.89258933,0.20485578,0.03116872,-0.97829577
1314892002.94451094,0.20484970,0.03103249,-0.97830138
1314892002.99360514,0.20476997,0.03110293,-0.97831583
1314892003.04105043,0.20482273,0.03103820,-0.97830684
1314892003.09361291,0.20480868,0.03113558,-0.97830669
1314892003.14550805,0.20486642,0.03126305,-0.97829054
1314892003.19361377,0.20466483,0.03126520,-0.97833266
1314892003.24550962,0.20467169,0.03116255,-0.97833450
1314892003.29362130,0.20468217,0.03107811,-0.97833499
1314892003.34148932,0.20464369,0.03124775,-0.97833764
1314892003.39361906,0.20440494,0.03173259,-0.97837194
1314892003.44149661,0.20452529,0.03186334,-0.97834254
1314892003.49362159,0.20460756,0.03182866,-0.97832647
1314892003.54147577,0.20474651,0.03175485,-0.97829980
1314892003.59286571,0.20460803,0.03188561,-0.97832452
1314892003.64085770,0.20449839,0.03216046,-0.97833845
1314892003.69277382,0.20405863,0.03224548,-0.97842747
1314892003.74549484,0.20402173,0.03199323,-0.97844344
1314892003.79347777,0.20389718,0.03195196,-0.97847075
1314892003.84485102,0.20360795,0.03190215,-0.97853260
1314892003.89276385,0.20367132,0.03212568,-0.97851210
1314892003.94062638,0.20373106,0.03210563,-0.97850032
1314892003.99255204,0.20376561,0.03217956,-0.97849070
1314892004.04162836,0.20383289,0.03217664,-0.97847678
1314892004.09260201,0.20386102,0.03223934,-0.97846886
1314892004.14160657,0.20407843,0.03220526,-0.97842466
1314892004.19275856,0.20374674,0.03192877,-0.97850285
1314892004.24161768,0.20377944,0.03163387,-0.97850562
1314892004.29274368,0.20379731,0.03145803,-0.97850756
1314892004.34057999,0.20381575,0.03149206,-0.97850263
1314892004.39247537,0.20401890,0.03165077,-0.97845517
1314892004.44151425,0.20414719,0.03243602,-0.97840269
1314892004.49350715,0.20407513,0.03234471,-0.97842075
1314892004.54045963,0.20403138,0.03226926,-0.97843236
1314892004.59257054,0.20389656,0.03210045,-0.97846602
1314892004.64049673,0.20396440,0.03206472,-0.97845305
1314892004.69256186,0.20459787,0.03218992,-0.97831668
1314892004.74055815,0.20491417,0.03216184,-0.97825140
1314892004.79251695,0.20488180,0.03238467,-0.97825083
1314892004.84489751,0.20499742,0.03239920,-0.97822612
1314892004.89249706,0.20572298,0.03086515,-0.97812341
1314892004.94050765,0.20566719,0.03108382,-0.97812821
1314892004.99251103,0.20564543,0.03081638,-0.97814125
1314892005.04048586,0.20545345,0.03076439,-0.97818323
1314892005.09361911,0.20543942,0.03062633,-0.97819051
1314892005.14172673,0.20510832,0.03061865,-0.97826023
1314892005.19260526,0.20806814,0.02931116,-0.97767505
1314892005.24152398,0.20809198,0.02899096,-0.97767953
1314892005.29252696,0.20822684,0.02907635,-0.97764828
1314892005.34459710,0.20818835,0.02889677,-0.97766180
1314892005.39257884,0.21150323,0.02849811,-0.97696174
1314892005.44520950,0.21163673,0.02830360,-0.97693848
1314892005.49402428,0.21152086,0.02826070,-0.97696482
1314892005.54451108,0.21151945,0.02839603,-0.97696120
1314892005.59252143,0.21163219,0.02850895,-0.97693350
1314892005.64458108,0.21219668,0.02886520,-0.97680058
1314892005.69258809,0.21214100,0.02873949,-0.97681638
1314892005.74464345,0.21217001,0.02884191,-0.97680706
1314892005.79261780,0.21191918,0.02888821,-0.97686014
1314892005.84549546,0.21192112,0.02887490,-0.97686011
1314892005.89361572,0.21185132,0.02945104,-0.97685805
1314892005.94549513,0.21197965,0.02936273,-0.97683287
1314892005.99362016,0.21198737,0.02924978,-0.97683459
1314892006.04566216,0.21201405,0.02936884,-0.97682522
1314892006.09361386,0.21191728,0.02949195,-0.97684251
1314892006.14183688,0.21132072,0.03003008,-0.97695535
1314892006.19261694,0.21134050,0.03014880,-0.97694741
1314892006.24161339,0.21129909,0.03016739,-0.97695579
1314892006.29258823,0.21113545,0.03006048,-0.97699447
1314892006.34500647,0.21103547,0.03016299,-0.97701291
1314892006.39258695,0.21022908,0.03048602,-0.97717672
1314892006.44548082,0.21024913,0.03046524,-0.97717305
1314892006.49359775,0.21025951,0.03062684,-0.97716577
1314892006.54169393,0.21014420,0.03057157,-0.97719230
1314892006.59260917,0.21039137,0.03063972,-0.97713698
1314892006.64461851,0.20895281,0.03043248,-0.97745209
1314892006.69262791,0.20930602,0.03042403,-0.97737678
1314892006.74088645,0.20934244,0.03039772,-0.97736980
1314892006.79259896,0.20941032,0.03010298,-0.97736438
1314892006.84075999,0.20934554,0.02996854,-0.97738239
1314892006.89258623,0.20808834,0.02904855,-0.97767859
1314892006.94061470,0.20783766,0.02898646,-0.97773375
1314892006.99259186,0.20780248,0.02909836,-0.97773791
1314892007.04552865,0.20767459,0.02901412,-0.97776758
1314892007.09364367,0.20763884,0.02905966,-0.97777382
1314892007.14162135,0.20786552,0.02929281,-0.97771870
1314892007.19262528,0.20627818,0.02938100,-0.97805218
1314892007.24152708,0.20601446,0.02957735,-0.97810185
1314892007.29260874,0.20593304,0.02952231,-0.97812066
1314892007.34160304,0.20570773,0.02980153,-0.97815960
1314892007.39359307,0.20545233,0.03070353,-0.97818538
1314892007.44058466,0.20531235,0.03074659,-0.97821342
1314892007.49359059,0.20516732,0.03068653,-0.97824573
1314892007.54058528,0.20497127,0.03047697,-0.97829338
1314892007.59360051,0.20494635,0.03032898,-0.97830320
1314892007.64148712,0.20479490,0.03193393,-0.97828384
1314892007.69252205,0.20487206,0.03186954,-0.97826978
1314892007.74051547,0.20481147,0.03198178,-0.97827881
1314892007.79352021,0.20477182,0.03198756,-0.97828692
1314892007.84147644,0.20490678,0.03220790,-0.97825143
1314892007.89349937,0.20497990,0.03254614,-0.97822492
1314892007.94147325,0.20480948,0.03246625,-0.97826327
1314892007.99346685,0.20501490,0.03264647,-0.97821424
1314892008.04452133,0.20503206,0.03262716,-0.97821129
1314892008.09351754,0.20506674,0.03272539,-0.97820074
1314892008.14132500,0.20472169,0.03357747,-0.97824413
1314892008.19270515,0.20494211,0.03362969,-0.97819619
1314892008.24448824,0.20481217,0.03364165,-0.97822299
1314892008.29246902,0.20494676,0.03339850,-0.97820313
1314892008.34135103,0.20472534,0.03346739,-0.97824714
1314892008.39351583,0.20426198,0.03255178,-0.97837489
1314892008.44131088,0.20435099,0.03245704,-0.97835945
1314892008.49145055,0.20436700,0.03223818,-0.97836334
1314892008.54119730,0.20412425,0.03239169,-0.97840895
1314892008.59351826,0.20420607,0.03236619,-0.97839272
1314892008.64461613,0.20420319,0.03237545,-0.97839301
1314892008.69258189,0.20367327,0.03168426,-0.97852609
1314892008.74118161,0.20357688,0.03173673,-0.97854445
1314892008.79245496,0.20361007,0.03180144,-0.97853544
1314892008.84161305,0.20353672,0.03197416,-0.97854507
1314892008.89361858,0.20238059,0.03121718,-0.97880927
1314892008.94539905,0.20240283,0.03154311,-0.97879422
1314892008.99266934,0.20221465,0.03152864,-0.97883358
1314892009.04552245,0.20235713,0.03148541,-0.97880553
1314892009.09362578,0.20213843,0.03122768,-0.97885897
1314892009.14160371,0.20056154,0.03179544,-0.97916501
1314892009.19261599,0.20052869,0.03198523,-0.97916556
1314892009.24159622,0.20051453,0.03190615,-0.97917104
1314892009.29248714,0.20063565,0.03190181,-0.97914637
1314892009.34516764,0.20037984,0.03184430,-0.97920062
1314892009.39262652,0.20028739,0.03178790,-0.97922137
1314892009.44560122,0.19923444,0.03194050,-0.97943118
1314892009.49347353,0.19912712,0.03200420,-0.97945093
1314892009.54154825,0.19908126,0.03200023,-0.97946038
1314892009.59262729,0.19913324,0.03192032,-0.97945242
1314892009.64450955,0.19897232,0.03199632,-0.97948265
1314892009.69291162,0.19829649,0.03319572,-0.97957978
1314892009.74064517,0.19805789,0.03322133,-0.97962718
1314892009.79260707,0.19796574,0.03329525,-0.97964330
1314892009.84064388,0.19798237,0.03305273,-0.97964815
1314892009.89276767,0.19733982,0.03286858,-0.97978398
1314892009.94147611,0.19720072,0.03305041,-0.97980587
1314892009.99259210,0.19736374,0.03314172,-0.97976996
1314892010.04557014,0.19754129,0.03313169,-0.97973452
1314892010.09277892,0.19756675,0.03310392,-0.97973033
1314892010.14146399,0.19766370,0.03310665,-0.97971068
